Tracking 19242 objects as of 16-Aug-2018
HD Live streaming from Space Station
objects crossing your sky now

COSMOS 826

Track COSMOS 826 now!
10-day predictions
COSMOS 826 is classified as:


NORAD ID: 8890
Int'l Code: 1976-054B
Perigee: 1,488.3 km
Apogee: 1,551.8 km
Inclination: 74.0 °
Period: 116.3 minutes
Semi major axis: 7891 km
RCS: 0.6963 m2 (medium)
Launch date: June 15, 1976
Source: Commonwealth of Independent States (former USSR) (CIS)
Launch site: PLESETSK MISSILE AND SPACE COMPLEX (PKMTR)
aabbcc
Your satellite tracking list
Your tracking list is empty




NASA's NSSDC Master Catalog

Two Line Element Set (TLE):
1 08890U 76054B   18228.12331962 -.00000013  00000-0  18156-4 0  9995
2 08890  73.9985 208.7544 0040266 316.6083 114.3745 12.38514883906714
Source of the keplerian elements: AFSPC